Regional Weather Roundup
Issued by NWS Albany, NY

Home | Current Version | Previous Version | Text Only | Print | Product List | Glossary On
Versions: 1 2 3 4 5 6 7 8 9 10 11 12 13 14 15 16 17 18 19 20 21 22 23 24 25 26 27 28 29 30 31 32 33 34 35 36 37 38 39 40 41 42 43 44 45 46 47 48 49 50
216
ASUS41 KALY 110810
RWRALY

NEW YORK STATE HOURLY WEATHER ROUNDUP
NATIONAL WEATHER SERVICE ALBANY NY
300 AM EST THU FEB 11 2016

NOTE: "FAIR" INDICATES FEW OR NO CLOUDS BELOW 12,000 FEET WITH NO
SIGNIFICANT WEATHER AND/OR NO OBSTRUCTIONS TO VISIBILITY.

NYZ032-033-038>043-046>054-057>066-NYZ062>081-110900-
EAST


CITY           SKY/WX    TMP DP  RH WIND       PRES   REMARKS
ALBANY         FLURRIES  25  11  55 W12       29.72R WCI  14
GLENS FALLS    CLOUDY    25  15  66 W8        29.68R WCI  16
POUGHKEEPSIE   CLOUDY    27  10  49 W8        29.74R WCI  19
NEWBURGH       CLOUDY    23  10  58 W17G29    29.74S WCI   9
MONTGOMERY     MOCLDY    24   6  46 W15G21    29.74S WCI  11
WHITE PLAINS   CLOUDY    25  14  63 NW16G24   29.72R FOG     WCI  12
ISLIP          CLOUDY    29  18  63 W18G25    29.71R WCI  16
NEW YORK CITY  LGT SNOW  27  19  74 NW15G23   29.78R WCI  15
CENTRAL PARK   CLOUDY    26  17  68 NW8G18    29.79R HAZE    WCI  18
$$

NYZ005>009-017-018-044>046-055-056-110900-
CENTRAL


CITY           SKY/WX    TMP DP  RH WIND       PRES   REMARKS
FULTON         CLOUDY    19  10  68 W10       29.76S WCI   7
SYRACUSE       FLURRIES  17  10  74 SW16G23   29.77R WCI   2
ROME           HVY SNOW  17  15  92 W20G26    29.76S VSB 1/4 WCI   1
ELMIRA         MOCLDY    15   5  64 W7        29.80R WCI   5
BINGHAMTON     MOCLDY    13   4  67 W7        29.71R WCI   3
MONTICELLO     MOCLDY    16   3  57 W17G25    29.70R WCI   0
$$

NYZ026>034-041>043-110900-
NORTH


CITY           SKY/WX    TMP DP  RH WIND       PRES   REMARKS
WATERTOWN      MOCLDY    16   6  65 W15       29.75R WCI   1
FORT DRUM      NOT AVBL
MASSENA        LGT SNOW  13   7  77 W9        29.74R WCI   1
SARANAC LAKE   LGT SNOW  14  11  87 VRB5      29.57R FOG     WCI   6
PLATTSBURGH    CLOUDY    19  16  88 CALM      29.66S
$$

NYZ001>004-010>016-019>021-110900-
WEST


CITY           SKY/WX    TMP DP  RH WIND       PRES   REMARKS
NIAGARA FALLS  FLURRIES  14   7  73 W16       29.83R WCI  -2
BUFFALO        PTCLDY    13   5  70 W16G24    29.82R WCI  -3
DUNKIRK        CLOUDY    17   3  54 W17G26    29.86R WCI   1
JAMESTOWN      CLOUDY    10   7  85 W9        29.77R VSB 3/4 WCI  -2
WELLSVILLE     LGT SNOW  10   3  73 W14G20    29.72R WCI  -6
ROCHESTER      CLEAR     14   6  70 W12       29.80R WCI   0
PENN YAN       PTCLDY    15   2  56 SW7       29.78R WCI   5
$$

             KEY
       WCI = WIND CHILL INDEX
       VSB = VISIBILITY
       HX  = HEAT INDEX
$$




USA.gov is the U.S. government's official web portal to all federal, state and local government web resources and services.